#timestamp,LO_Frequency,Hit,StdDev 
1624298415.8,286047003.1,N
1624298435.6,286047005.9,N
1624298455.5,286047003.0,N
1624298475.3,286047003.1,N
1624298495.2,286047005.9,N
1624298515.9,286047005.1,N
1624298535.7,286047005.8,N
1624298555.6,286047005.1,N
1624298575.4,286047005.0,N
1624298595.2,286047005.0,N
1624298615.1,286047005.1,N
1624298616.0,286047005.1,N
1624298635.8,286047005.0,Y
1624298655.7,286046999.7,P
1624298675.5,286047000.2,N
1624298695.3,286047000.1,N
1624298715.2,286047000.1,N
1624298735.0,286047001.2,N
1624298735.9,286047001.2,N
1624298755.8,286047000.8,N
1624298775.6,286047000.4,N
1624298795.4,286047000.7,N
1624298815.3,286047001.1,N
1624298835.1,286047000.7,N
1624298885.9,286046998.4,E
1624298895.8,286046998.8,N
1624298915.6,286047000.0,P
1624298935.5,286046999.9,N
1624298955.3,286047000.0,N
1624298975.2,286047001.0,N
1624298995.9,286047001.1,N
1624299015.7,286046998.1,N
1624299035.6,286046998.6,N
1624299055.4,286046999.5,N
1624299075.2,286046999.4,N
1624299095.1,286046998.7,N
1624299096.0,286046998.7,N
1624299115.8,286046999.1,N
1624299135.2,286046996.6,Y
1624299155.9,286046999.6,P
1624299175.7,286046999.4,P
1624299195.6,286046997.1,P
1624299215.4,286046995.4,Y
1624299235.3,286046997.2,P
1624299255.1,286046997.0,P
1624299256.0,286046997.0,P
1624299275.8,286046995.3,Y
1624299295.7,286046998.3,P
1624299315.5,286047001.2,P
1624299335.4,286047000.8,N
1624299355.2,286046998.4,N
1624299375.0,286046998.1,N
1624299375.9,286046998.1,N
1624299395.8,286047001.1,N
1624299415.6,286046999.1,N
1624299435.5,286046998.2,N
1624299455.3,286047001.0,N
1624299475.1,286047000.4,N
1624299495.9,286047000.2,N
1624299515.7,286047000.5,N
1624299535.5,286046999.7,N
1624299555.4,286047002.2,N
1624299575.2,286047001.6,N
1624299595.1,286047004.4,Y
1624299596.0,286047004.4,P
1624299615.8,286047003.6,N
1624299635.6,286047004.8,N
1624299655.5,286047005.2,N
1624299675.3,286047004.7,N
1624299695.1,286047004.7,N
1624299715.9,286047005.0,N
1624299735.7,286047004.6,N
1624299755.6,286047007.6,Y
1624299775.4,286047002.1,P
1624299795.2,286047002.2,N
1624299815.1,286046999.8,N
1624299816.0,286046999.8,N
1624299835.8,286047002.6,N
1624299855.7,286047002.5,N
1624299875.5,286047002.3,N
1624299895.3,286047002.8,N
1624299915.2,286047001.7,N
1624299935.0,286047002.5,N
1624299935.9,286047002.5,N
1624299955.8,286047000.2,N
1624299975.6,286047000.2,N
1624299995.4,286047002.8,N
1624300015.3,286047002.5,N
1624300035.1,286047001.5,N
1624300036.0,286047001.5,N
1624300055.8,286047002.7,N
1624300075.7,286046999.7,N
1624300095.5,286047004.4,Y
1624300115.4,286047000.9,P
1624300135.2,286047002.2,P
1624300155.0,286047000.0,N
1624300155.9,286047000.0,N
1624300175.8,286046999.8,N
1624300195.6,286047000.9,N
1624300215.6,286047000.6,N
1624300235.5,286047000.6,N
1624300255.3,286047000.7,N
1624300275.1,286047001.1,N
1624300295.9,286046998.1,N
1624300315.7,286047000.8,N
1624300335.6,286046998.5,N
1624300355.4,286046998.2,N
1624300375.2,286046999.3,N
1624300395.1,286046998.9,N
1624300396.0,286046998.9,N
1624300415.8,286046999.4,N
1624300435.7,286046999.0,N
1624300455.5,286046998.9,N
1624300475.3,286046999.5,N
1624300495.2,286046999.4,N
1624300515.0,286046998.6,N
1624300515.9,286046998.6,N
1624300535.8,286046999.1,N
1624300555.6,286046998.7,N
1624300575.4,286046998.4,N
1624300595.3,286046999.7,N
1624300615.1,286047000.1,N
1624300635.8,286047000.1,N
1624300655.7,286047001.2,N
1624300675.5,286046998.2,N
1624300695.4,286046998.3,N
1624300715.2,286047001.1,N
1624300735.0,286047000.7,N
1624300755.0,286047000.0,N
1624300755.9,286047000.0,N
1624300775.8,286046998.3,N
1624300795.6,286047000.7,N
1624300815.5,286047000.4,N
1624300835.3,286046999.8,N
1624300855.1,286046999.8,N
1624300875.9,286047000.2,N
1624300895.7,286047000.3,N
1624300915.5,286046998.5,N
1624300935.3,286047001.1,N
1624300955.8,286047000.0,N
1624300975.6,286047000.6,N
1624300995.5,286047000.6,N
1624301015.3,286046998.6,N
1624301035.1,286047000.1,N
1624301055.9,286047001.0,N
1624301075.7,286047000.9,N
1624301095.5,286047000.8,N
1624301115.4,286047000.6,N
1624301135.2,286047000.9,N
1624301155.1,286046999.8,N
1624301156.0,286046999.8,N
1624301175.8,286047002.8,Y
1624301195.6,286047000.4,P
1624301215.5,286046999.9,N
1624301235.3,286047000.3,N
1624301255.2,286047000.8,Y
1624301275.9,286046998.5,P
1624301295.7,286047000.3,N
1624301315.6,286046999.7,N
1624301335.6,286047002.8,Y
1624301355.5,286046999.7,P
1624301375.3,286047000.2,P
1624301395.1,286047000.4,N
1624301415.9,286047000.3,N
1624301435.7,286047002.4,Y
1624301455.6,286046998.6,P
1624301475.8,286046998.5,N
1624301495.6,286046998.4,N
1624301515.5,286046999.4,N
1624301535.3,286046999.0,N
1624301555.1,286046997.1,Y
1624301575.9,286046996.7,P
1624301595.7,286046999.1,N
1624301615.5,286046998.5,N
1624301635.4,286046996.9,Y
1624301655.2,286047001.1,P
1624301675.1,286046998.1,N
1624301676.0,286046998.1,N
1624301695.8,286047000.8,N
1624301715.6,286047000.6,N
1624301735.5,286047000.8,N
1624301755.3,286047001.2,N
1624301775.1,286047000.7,N
1624301795.9,286047002.8,N
1624301815.7,286047000.0,N
1624301835.6,286047000.2,N
1624301855.4,286047000.2,N
1624301875.2,286046999.8,N
1624301895.1,286047002.6,N
1624301896.0,286047002.6,N
1624301915.8,286047002.7,N
1624301935.7,286047000.3,N
1624301955.5,286047000.9,N
1624301975.3,286047000.2,N
1624301995.2,286047002.6,N
